Hourly Data Report for September 26, 2017

All times are specified in Local Standard Time (LST). Add 1 hour to adjust for Daylight Saving Time where and when it is observed.

TORONTO INTL A
ONTARIO

43°40'36.000" N
79°37'50.000" W
173.40 m
6158731
71624
YYZ

Download Data

Hourly Data (September 2017)
Hourly Data Report for September 26, 2017
Temp Definition
°C
Dew Point Temp Definition
°C
Rel Hum Definition
%
Wind Dir Definition
10's deg

Wind Spd Definition
km/h
Visibility Definition
km
Stn Press Definition
kPa
Hmdx Definition


Wind Chill Definition


Weather Definition


TIME
00:00 Legend Double Dagger 23.5 18.6 74 2 10 24.1 99.54 30   LegendNANA
01:00 Legend Double Dagger 23.0 18.6 76 3 8 24.1 99.56 29   Clear
02:00 Legend Double Dagger 22.5 18.4 77 3 5 24.1 99.53 29   LegendNANA
03:00 Legend Double Dagger 21.2 17.8 80 32 6 24.1 99.52 27   LegendNANA
04:00 Legend Double Dagger 21.1 17.8 81 36 2 24.1 99.52 27   Mostly Cloudy
05:00 Legend Double Dagger 20.9 17.5 81 36 1 24.1 99.51 27   LegendNANA
06:00 Legend Double Dagger 21.1 18.0 82 31 4 24.1 99.53 27   LegendNANA
07:00 Legend Double Dagger 20.9 18.0 83 36 3 19.3 99.56 27   Mainly Clear
08:00 Legend Double Dagger 23.7 19.0 74 31 3 19.3 99.56 30   LegendNANA
09:00 Legend Double Dagger 25.9 20.1 70 16 5 19.3 99.56 34   LegendNANA
10:00 Legend Double Dagger 28.1 19.7 60 21 9 19.3 99.52 35   Mainly Clear
11:00 Legend Double Dagger 29.4 20.4 58 14 13 24.1 99.50 37   LegendNANA
12:00 Legend Double Dagger 29.8 20.6 57 12 14 24.1 99.45 38   LegendNANA
13:00 Legend Double Dagger 30.7 19.6 51 15 16 24.1 99.38 38   Mostly Cloudy
14:00 Legend Double Dagger 30.6 19.2 50 14 18 24.1 99.34 38   LegendNANA
15:00 Legend Double Dagger 30.2 19.0 50 16 20 24.1 99.29 37   LegendNANA
16:00 Legend Double Dagger 29.4 19.4 54 15 15 24.1 99.25 36   Mainly Clear
17:00 Legend Double Dagger 28.8 19.3 56 15 16 24.1 99.26 36   LegendNANA
18:00 Legend Double Dagger 26.9 19.1 62 15 9 24.1 99.26 34   LegendNANA
19:00 Legend Double Dagger 26.7 19.0 62 17 10 24.1 99.24 33   Mainly Clear
20:00 Legend Double Dagger 27.0 18.0 57 22 10 24.1 99.27 33   LegendNANA
21:00 Legend Double Dagger 25.7 17.2 59 25 8 24.1 99.27 31   LegendNANA
22:00 Legend Double Dagger 25.1 17.0 60 27 6 24.1 99.27 30   Mainly Clear
23:00 Legend Double Dagger 24.5 16.5 60 25 5 24.1 99.24 29   LegendNANA

Notes on Data Quality.

Legend

  • E = Estimated
  • M = Missing
  • NA = Not Available
  • ‡ = Partner data that is not subject to review by the National Climate Archives
Date modified: